Oxford, AL

12:32 AM CDT on September 27, 2016 (GMT -0500)
Anniston Metro

Weather History for KANB - September, 2013

Change the Weather History Date:

Saturday, September 21, 2013

  Actual Average Record
Temperature  
Mean Temperature 71 °F 72 °F  
Max Temperature 77 °F 83 °F 97 °F (1955)
Min Temperature 64 °F 61 °F 40 °F (1903)
Degree Days  
Heating Degree Days 0    
Month to date heating degree days 0  
Since 1 July heating degree days 0  
Cooling Degree Days 6    
Growing Degree Days 22 (Base 50)    
Moisture  
Dew Point 67 °F    
Average Humidity 79    
Maximum Humidity 93    
Minimum Humidity 64    
Precipitation  
Precipitation 0.72 in 0.09 in 3.99 in (1995)
Month to date precipitation 2.49 2.04  
Year to date precipitation 60.27 36.96  
Sea Level Pressure  
Sea Level Pressure 29.80 in    
Wind  
Wind Speed 5 mph (WSW)    
Max Wind Speed 18 mph    
Max Gust Speed 25 mph    
Visibility 8 miles    
Events Rain    
T = Trace of Precipitation, MM = Missing Value Source: NWS Daily Summary

Daily Weather History Graph

Daily Weather History Graph

Search for Another Location

Airport or City:

Trip Planner

Search our weather history database for the weather conditions in past years. The results will help you decide how hot, cold, wet, or windy it might be!

Date:

Astronomy

Sep. 21, 2013 Rise Set
Actual Time 6:31 AM CDT 6:41 PM CDT
Civil Twilight 6:06 AM CDT 7:06 PM CDT
Nautical Twilight 5:37 AM CDT 7:34 PM CDT
Astronomical Twilight 5:07 AM CDT 8:04 PM CDT
Moon 8:01 PM CDT (9/21) 8:40 AM CDT (9/21)
Length of Visible Light 12h 59m
Length of Day
12h 10m
Waning Gibbous, 94% of the Moon is Illuminated
Sep 21
Waning Gibbous
Sep 26
Last Quarter
Oct 4
New
Oct 11
First Quarter
Oct 18
Full

Hourly Weather History & Observations

Time (CDT) Temp. Dew Point Humidity Pressure Visibility Wind Dir Wind Speed Gust Speed Precip Events Conditions
12:53 AM 77.0 °F 64.9 °F 66% 29.85 in 10.0 mi Calm Calm - N/A   Overcast
1:53 AM 77.0 °F 66.9 °F 71% 29.83 in 10.0 mi SSW 3.5 mph - 0.00 in   Overcast
2:53 AM 75.0 °F 69.1 °F 82% 29.81 in 10.0 mi SW 6.9 mph - N/A   Scattered Clouds
3:53 AM 73.9 °F 70.0 °F 87% 29.81 in 10.0 mi SSW 3.5 mph - 0.00 in Rain Light Rain
4:53 AM 73.9 °F 71.1 °F 91% 29.80 in 10.0 mi Calm Calm - 0.01 in Rain Light Rain
5:53 AM 73.9 °F 71.1 °F 91% 29.80 in 7.0 mi SW 3.5 mph - 0.02 in Rain Light Rain
6:53 AM 73.0 °F 71.1 °F 93% 29.79 in 7.0 mi South 5.8 mph - 0.06 in Rain Light Rain
7:53 AM 73.9 °F 71.1 °F 91% 29.78 in 7.0 mi SSW 3.5 mph - 0.04 in Rain Light Rain
8:53 AM 73.9 °F 72.0 °F 93% 29.78 in 6.0 mi SSW 6.9 mph - 0.06 in Rain Light Rain
9:07 AM 75.2 °F 71.6 °F 89% 29.80 in 4.0 mi SW 3.5 mph - 0.02 in Rain Light Rain
9:29 AM 75.2 °F 71.6 °F 89% 29.80 in 1.5 mi SW 6.9 mph - 0.11 in Rain Rain
9:53 AM 73.9 °F 72.0 °F 93% 29.78 in 0.8 mi SW 15.0 mph 20.7 mph 0.35 in Rain Heavy Rain
9:56 AM 75.2 °F 71.6 °F 89% 29.80 in 1.2 mi SW 12.7 mph 20.7 mph 0.00 in Rain Light Rain
9:59 AM 75.2 °F 71.6 °F 89% 29.80 in 4.0 mi SW 11.5 mph 20.7 mph 0.00 in Rain Light Rain
10:05 AM 75.2 °F 71.6 °F 89% 29.80 in 10.0 mi SW 10.4 mph - 0.00 in Rain Light Rain
10:36 AM 75.2 °F 73.4 °F 94% 29.81 in 10.0 mi SW 11.5 mph - 0.01 in Rain Light Rain
10:53 AM 75.9 °F 72.0 °F 87% 29.78 in 10.0 mi WSW 15.0 mph 21.9 mph 0.01 in   Overcast
11:01 AM 75.2 °F 71.6 °F 89% 29.81 in 10.0 mi WSW 11.5 mph 21.9 mph 0.00 in Rain Light Rain
11:53 AM 75.0 °F 72.0 °F 90% 29.77 in 7.0 mi SW 10.4 mph - 0.02 in Rain Light Rain
12:29 PM 69.8 °F 66.2 °F 88% 29.81 in 10.0 mi North 13.8 mph 21.9 mph 0.03 in Rain Light Rain
12:42 PM 69.8 °F 64.4 °F 83% 29.80 in 10.0 mi North 17.3 mph 25.3 mph 0.03 in Rain Light Rain
12:53 PM 69.1 °F 64.9 °F 87% 29.79 in 10.0 mi Variable 6.9 mph 23.0 mph 0.03 in Rain Light Rain
1:02 PM 69.8 °F 64.4 °F 83% 29.81 in 10.0 mi North 11.5 mph 16.1 mph 0.01 in Rain Light Rain
1:53 PM 68.0 °F 64.0 °F 87% 29.80 in 8.0 mi NNE 5.8 mph - 0.03 in Rain Light Rain
2:53 PM 66.9 °F 64.0 °F 90% 29.78 in 7.0 mi Calm Calm - 0.07 in Rain Light Rain
3:53 PM 68.0 °F 64.0 °F 87% 29.78 in 10.0 mi NNE 3.5 mph - 0.02 in   Mostly Cloudy
4:53 PM 69.1 °F 64.0 °F 84% 29.77 in 10.0 mi NNE 3.5 mph - N/A   Overcast
5:37 PM 69.8 °F 64.4 °F 83% 29.79 in 10.0 mi Calm Calm - N/A   Mostly Cloudy
5:53 PM 69.1 °F 64.0 °F 84% 29.78 in 10.0 mi Calm Calm - N/A   Mostly Cloudy
6:53 PM 66.9 °F 64.9 °F 93% 29.78 in 10.0 mi Calm Calm - N/A   Scattered Clouds
7:17 PM 66.2 °F 64.4 °F 94% 29.80 in 10.0 mi SW 3.5 mph - N/A   Mostly Cloudy
7:53 PM 66.9 °F 64.9 °F 93% 29.79 in 10.0 mi SSW 3.5 mph - N/A   Overcast
8:22 PM 66.2 °F 64.4 °F 94% 29.81 in 10.0 mi SW 3.5 mph - N/A   Mostly Cloudy
8:42 PM 66.2 °F 64.4 °F 94% 29.81 in 10.0 mi Calm Calm - N/A   Mostly Cloudy
8:53 PM 66.9 °F 64.9 °F 93% 29.80 in 10.0 mi Calm Calm - N/A   Mostly Cloudy
9:16 PM 69.8 °F 64.4 °F 83% 29.82 in 10.0 mi North 6.9 mph - N/A   Scattered Clouds
9:53 PM 68.0 °F 62.1 °F 81% 29.81 in 10.0 mi North 8.1 mph - N/A   Clear
10:53 PM 66.9 °F 60.1 °F 79% 29.81 in 10.0 mi NNE 5.8 mph - N/A   Partly Cloudy
11:53 PM 64.9 °F 60.1 °F 84% 29.80 in 10.0 mi Calm Calm - N/A   Clear